Location: Oso
(48.2715°N, 121.9283°W)
Time: 13:38:19
(UTC+00:00)

Envisat - Visible Passes

Search period start: 20 May 2022 00:00
Search period end: 30 May 2022 00:00
Orbit: 764 x 765 km, 98.2° (Epoch: 19 May)

Date Brightness Start Highest point End Pass type
(mag) Time Alt. Az. Time Alt. Az. Time Alt. Az.
21 May 5.8 11:19:22 10° ENE 11:21:30 12° E 11:23:38 10° ESE visible
26 May 5.6 11:31:53 10° NE 11:35:08 17° E 11:38:21 10° SE visible
29 May 5.8 11:20:48 10° ENE 11:23:12 13° E 11:25:36 10° ESE visible
